| time (UTC) | temp C | wind direction | speed KPH | gust KPH | rain 1hr cm | rain 24hr cm | rain mn cm | humidity % | barometer mb |
| 20260508064556 | 6 | 237 | 3.2 | 8.0 | 0.00 | 0.69 | 0.00 | 73 | 1017.4 |
| 20260508063101 | 5 | 0 | 0.0 | 1.6 | 0.00 | 0.69 | 0.00 | 74 | 1017.4 |
| 20260508061559 | 6 | 0 | 0.0 | 1.6 | 0.00 | 0.69 | 0.00 | 73 | 1017.6 |
| 20260508060111 | 7 | 0 | 3.2 | 9.7 | 0.00 | 0.69 | 0.00 | 68 | 1017.4 |
| 20260508054639 | 6 | 208 | 3.2 | 6.4 | 0.00 | 0.69 | 0.69 | 75 | 1017.5 |
| 20260508053055 | 6 | 212 | 3.2 | 8.0 | 0.00 | 0.69 | 0.69 | 76 | 1017.9 |
| 20260508051557 | 7 | 0 | 0.0 | 6.4 | 0.00 | 0.69 | 0.69 | 68 | 1018.4 |
| 20260508050059 | 7 | 0 | 0.0 | 6.4 | 0.00 | 0.69 | 0.69 | 67 | 1017.7 |
| 20260508044554 | 7 | 0 | 0.0 | 4.8 | 0.00 | 0.69 | 0.69 | 66 | 1017.6 |
| 20260508043059 | 7 | 29 | 0.0 | 9.7 | 0.00 | 0.69 | 0.69 | 63 | 1017.4 |
| 20260508041555 | 8 | 0 | 0.0 | 1.6 | 0.00 | 0.69 | 0.69 | 63 | 1017.2 |
| 20260508040058 | 8 | 203 | 0.0 | 1.6 | 0.00 | 0.69 | 0.69 | 64 | 1017.7 |
| 20260508034559 | 9 | 345 | 0.0 | 8.0 | 0.00 | 0.69 | 0.69 | 56 | 1018.0 |
| 20260508033055 | 9 | 0 | 0.0 | 3.2 | 0.00 | 0.69 | 0.69 | 52 | 1016.9 |
| 20260508031601 | 10 | 246 | 0.0 | 8.0 | 0.00 | 0.69 | 0.69 | 50 | 1016.5 |
| 20260508030104 | 10 | 0 | 0.0 | 6.4 | 0.00 | 0.69 | 0.69 | 52 | 1016.5 |
| 20260508024609 | 10 | 0 | 3.2 | 17.7 | 0.00 | 0.69 | 0.69 | 50 | 1016.5 |
| 20260508023057 | 9 | 207 | 8.0 | 20.9 | 0.00 | 0.69 | 0.69 | 56 | 1016.4 |
| 20260508021555 | 10 | 195 | 11.3 | 20.9 | 0.00 | 0.69 | 0.69 | 54 | 1016.4 |
| 20260508020105 | 11 | 135 | 8.0 | 22.5 | 0.00 | 0.69 | 0.69 | 47 | 1016.5 |
| 20260508014620 | 12 | 254 | 11.3 | 27.4 | 0.00 | 0.69 | 0.69 | 42 | 1016.5 |
| 20260508013101 | 12 | 219 | 1.6 | 4.8 | 0.00 | 0.69 | 0.69 | 38 | 1015.9 |
| 20260508011606 | 13 | 0 | 1.6 | 8.0 | 0.00 | 0.69 | 0.69 | 36 | 1015.9 |
| 20260508004557 | 13 | 0 | 0.0 | 0.0 | 0.00 | 0.69 | 0.69 | 36 | 1015.6 |
| 20260508003055 | 14 | 41 | 0.0 | 3.2 | 0.00 | 0.69 | 0.69 | 35 | 1015.3 |
| 20260508001601 | 14 | 0 | 0.0 | 11.3 | 0.00 | 0.69 | 0.69 | 31 | 1015.1 |
| 20260508000056 | 14 | 103 | 0.0 | 4.8 | 0.00 | 0.69 | 0.69 | 31 | 1015.1 |
| 20260507234553 | 13 | 68 | 0.0 | 1.6 | 0.00 | 0.69 | 0.69 | 32 | 1015.1 |
| 20260507233058 | 13 | 225 | 1.6 | 4.8 | 0.00 | 0.69 | 0.69 | 34 | 1015.3 |
| 20260507231555 | 13 | 0 | 3.2 | 6.4 | 0.00 | 0.69 | 0.69 | 32 | 1015.1 |
| 20260507230056 | 13 | 0 | 0.0 | 3.2 | 0.00 | 0.69 | 0.69 | 32 | 1015.4 |
| 20260507224604 | 13 | 0 | 0.0 | 6.4 | 0.00 | 0.69 | 0.69 | 34 | 1015.4 |
| 20260507223055 | 13 | 0 | 0.0 | 1.6 | 0.00 | 0.69 | 0.69 | 33 | 1015.4 |
| 20260507221558 | 13 | 0 | 3.2 | 6.4 | 0.00 | 0.69 | 0.69 | 35 | 1015.6 |
| 20260507220105 | 13 | 89 | 0.0 | 3.2 | 0.00 | 0.69 | 0.69 | 32 | 1015.7 |
| 20260507214607 | 13 | 0 | 1.6 | 8.0 | 0.00 | 0.69 | 0.69 | 31 | 1016.0 |
| 20260507213100 | 13 | 94 | 1.6 | 4.8 | 0.00 | 0.69 | 0.69 | 35 | 1016.1 |
| 20260507211603 | 13 | 0 | 1.6 | 3.2 | 0.00 | 0.69 | 0.69 | 34 | 1016.5 |
| 20260507210104 | 13 | 0 | 0.0 | 3.2 | 0.00 | 0.69 | 0.69 | 35 | 1016.7 |
| 20260507204600 | 13 | 23 | 0.0 | 8.0 | 0.00 | 0.69 | 0.69 | 33 | 1016.9 |
| 20260507203100 | 14 | 0 | 1.6 | 8.0 | 0.00 | 0.69 | 0.69 | 33 | 1017.0 |
| 20260507201556 | 14 | 347 | 1.6 | 6.4 | 0.00 | 0.69 | 0.69 | 33 | 1017.2 |
| 20260507200057 | 14 | 18 | 0.0 | 8.0 | 0.00 | 0.69 | 0.69 | 33 | 1017.1 |
| 20260507194557 | 14 | 199 | 0.0 | 9.7 | 0.00 | 0.69 | 0.69 | 32 | 1017.2 |
| 20260507193058 | 15 | 195 | 3.2 | 12.9 | 0.00 | 0.69 | 0.69 | 31 | 1017.3 |
| 20260507191559 | 14 | 186 | 3.2 | 16.1 | 0.00 | 0.69 | 0.69 | 34 | 1017.5 |
| 20260507190059 | 13 | 242 | 6.4 | 22.5 | 0.00 | 0.69 | 0.69 | 33 | 1017.5 |
| 20260507184556 | 14 | 189 | 0.0 | 20.9 | 0.00 | 0.69 | 0.69 | 35 | 1017.6 |
| 20260507183059 | 12 | 231 | 6.4 | 25.7 | 0.00 | 0.69 | 0.69 | 38 | 1017.6 |
| 20260507181559 | 10 | 211 | 8.0 | 22.5 | 0.00 | 0.69 | 0.69 | 42 | 1017.4 |
| 20260507174608 | 9 | 199 | 0.0 | 3.2 | 0.00 | 0.69 | 0.69 | 51 | 1018.1 |
| 20260507173056 | 9 | 0 | 1.6 | 3.2 | 0.03 | 0.69 | 0.69 | 51 | 1017.9 |
| 20260507171611 | 9 | 188 | 1.6 | 6.4 | 0.03 | 0.69 | 0.69 | 49 | 1018.1 |
| 20260507170057 | 10 | 0 | 4.8 | 17.7 | 0.08 | 0.69 | 0.69 | 45 | 1018.1 |
| 20260507164600 | 9 | 206 | 4.8 | 14.5 | 0.13 | 0.69 | 0.69 | 46 | 1018.2 |
| 20260507163100 | 8 | 183 | 4.8 | 17.7 | 0.13 | 0.66 | 0.66 | 50 | 1018.3 |
| 20260507161602 | 7 | 182 | 4.8 | 19.3 | 0.20 | 0.66 | 0.66 | 51 | 1018.6 |
| 20260507160058 | 7 | 261 | 12.9 | 24.1 | 0.20 | 0.61 | 0.61 | 51 | 1019.1 |
| 20260507154601 | 7 | 188 | 4.8 | 17.7 | 0.23 | 0.56 | 0.56 | 51 | 1019.0 |
| 20260507153103 | 6 | 202 | 8.0 | 29.0 | 0.36 | 0.53 | 0.53 | 54 | 1018.6 |
| 20260507151558 | 7 | 302 | 3.2 | 8.0 | 0.41 | 0.46 | 0.46 | 55 | 1017.9 |
| 20260507150110 | 7 | 191 | 1.6 | 16.1 | 0.41 | 0.41 | 0.41 | 54 | 1018.5 |
| 20260507144559 | 7 | 206 | 12.9 | 25.7 | 0.33 | 0.33 | 0.33 | 51 | 1018.5 |
| 20260507143059 | 7 | 253 | 8.0 | 27.4 | 0.18 | 0.18 | 0.18 | 57 | 1018.0 |
| 20260507141605 | 7 | 182 | 9.7 | 22.5 | 0.05 | 0.05 | 0.05 | 57 | 1018.0 |
| 20260507140107 | 7 | 226 | 6.4 | 19.3 | 0.00 | 0.00 | 0.00 | 58 | 1018.1 |
| 20260507134559 | 7 | 210 | 8.0 | 24.1 | 0.00 | 0.00 | 0.00 | 56 | 1018.0 |
| 20260507133116 | 6 | 226 | 9.7 | 19.3 | 0.00 | 0.00 | 0.00 | 53 | 1018.0 |
| 20260507131557 | 5 | 202 | 6.4 | 17.7 | 0.00 | 0.00 | 0.00 | 58 | 1017.6 |
| 20260507130110 | 5 | 195 | 8.0 | 24.1 | 0.00 | 0.00 | 0.00 | 58 | 1017.5 |
| 20260507124634 | 5 | 176 | 8.0 | 22.5 | 0.00 | 0.00 | 0.00 | 57 | 1017.4 |
| 20260507123105 | 5 | 225 | 9.7 | 24.1 | 0.00 | 0.00 | 0.00 | 58 | 1017.1 |
| 20260507121600 | 4 | 231 | 9.7 | 24.1 | 0.00 | 0.00 | 0.00 | 59 | 1016.9 |
| 20260507120057 | 4 | 250 | 8.0 | 27.4 | 0.00 | 0.00 | 0.00 | 58 | 1016.9 |
| 20260507114610 | 3 | 0 | 0.0 | 0.0 | 0.00 | 0.00 | 0.00 | 59 | 1017.1 |
| 20260507113058 | 3 | 0 | 0.0 | 0.0 | 0.00 | 0.00 | 0.00 | 60 | 1017.5 |
| 20260507111555 | 3 | 0 | 0.0 | 0.0 | 0.00 | 0.00 | 0.00 | 61 | 1017.7 |
| 20260507110057 | 3 | 0 | 0.0 | 0.0 | 0.00 | 0.00 | 0.00 | 60 | 1017.4 |
| 20260507104558 | 3 | 0 | 0.0 | 0.0 | 0.00 | 0.00 | 0.00 | 61 | 1017.4 |
| 20260507103058 | 3 | 0 | 0.0 | 0.0 | 0.00 | 0.00 | 0.00 | 60 | 1017.3 |
| 20260507101559 | 3 | 0 | 0.0 | 0.0 | 0.00 | 0.00 | 0.00 | 60 | 1017.4 |
| 20260507100057 | 3 | 0 | 0.0 | 0.0 | 0.00 | 0.00 | 0.00 | 59 | 1017.6 |
| 20260507094555 | 3 | 0 | 0.0 | 0.0 | 0.00 | 0.00 | 0.00 | 60 | 1017.6 |
| 20260507093100 | 2 | 0 | 0.0 | 0.0 | 0.00 | 0.00 | 0.00 | 63 | 1017.3 |
| 20260507091559 | 2 | 0 | 0.0 | 0.0 | 0.00 | 0.00 | 0.00 | 63 | 1017.4 |
| 20260507090103 | 2 | 0 | 0.0 | 0.0 | 0.00 | 0.00 | 0.00 | 66 | 1017.4 |
| 20260507084600 | 2 | 0 | 0.0 | 0.0 | 0.00 | 0.00 | 0.00 | 62 | 1017.5 |
| 20260507083058 | 2 | 0 | 0.0 | 0.0 | 0.00 | 0.00 | 0.00 | 63 | 1017.5 |
| 20260507081600 | 2 | 0 | 0.0 | 0.0 | 0.00 | 0.00 | 0.00 | 64 | 1017.5 |
| 20260507080103 | 2 | 0 | 0.0 | 0.0 | 0.00 | 0.00 | 0.00 | 64 | 1017.6 |
| 20260507074615 | 1 | 0 | 0.0 | 0.0 | 0.00 | 0.00 | 0.00 | 64 | 1017.6 |
| 20260507073108 | 1 | 0 | 0.0 | 0.0 | 0.00 | 0.00 | 0.00 | 64 | 1017.9 |
| 20260507071559 | 1 | 0 | 0.0 | 0.0 | 0.00 | 0.00 | 0.00 | 67 | 1018.1 |
| 20260507070116 | 1 | 0 | 0.0 | 0.0 | 0.00 | 0.00 | 0.00 | 66 | 1018.1 |